OBJECT A, 61869

Orbit data source: Space-Track

You're viewing an Uncataloged Satellite

Recently launched and/or uncataloged satellites may have evolving metadata. Metadata may include but not limited to: Owner, Maufacturer, Bus, Motor, and Mission.

OBJECT A, 61869 is a satellite owned by Hangtian Hongtu (CN) in SSO that was launched on Sat, 09 Nov 2024 UTC via a CHANG ZHENG 2C launch vehicle from the Jiuquan Satellite Launch Center, China (JSC). Unknown objects in Earth's orbit typically refer to objects detected orbiting the Earth but have not yet been identified or cataloged. These objects could be anything from previously untracked satellites, spent rocket stages, debris from satellite collisions, or even natural meteoroids temporarily captured by Earth's gravity.

Loading next visibility...
Identifier
61869, 2024-203A
Orbit
SSO
Country
Flag of CNCN / PRC
Related business
Manufacturer
Yinhe
Mission
Operational Commercial Radar Imaging
Bus & Motor
PIESAT, Unknown motor
Mass
320 kg wet, 320 kg dry
Launch date (UTC)
Icon of a cake. It is the launch day of the satellite!2024-11-09 (1 year ago)
Launch vehicle
CHANG ZHENG 2C
Launch site
Jiuquan Satellite Launch Center, China (JSC)
Object type
Unknown
Shape & HBR
Box + 2 Pan, 2.0 m
Radar Cross Section
2.315 m², Large (>1 m²)

Expand to show TLE details & history
Last TLE update: 4 hours ago

TLE from 4 hours ago
0 OBJECT A
1 61869U 24203A   25312.88001848  .00021729  00000-0  91699-3 0  9999
2 61869  97.4471  19.1672 0013848  30.9436 329.2614 15.23213484 55346
Epoch: 2025-11-08T21:07Z
TLE epoch observation values (Epoch: 2025-11-08T21:07:13.596Z)
Latitude
-0.00003°
Longitude
14.05726°
Altitude
491.068 km
Speed
7.624 km/s
True Right ascension
01h 16m 40s
True Declination
0° 00' 00"
Sunlit
Object was in full shadow at epoch
Visualization orbit readout
Latitude
Unknown
Longitude
Unknown
Altitude
Unknown
Speed
Unknown
Apparent Right ascension
Unknown
Apparent Declination
Unknown
Sunlit
N/A
Visualization observer readout
Local Sidereal Time
21:20:38
Azimuth
Unknown
Elevation
Unknown
Doppler factor
Unknown
Orbital elements
Apogee altitude
502.634 km
Perigee altitude
483.603 km
Semi-major axis
6,871.256 km
Eccentricity
0.00138
Inclination
97.4471°
RAAN
19.1672°
Arg. of periapsis
30.9436°
True anomaly
329.18017°
Mean anomaly
329.2614°
Eccentric anomaly
329.2208°
Mean motion
3.81056 °/min
Orbital period
94.47 mins
BSTAR
0.00091699
Loading maneuver chart data...
Computing Atmospheric mass density...
Loading historical data...
Loading historical data...
Loading historical data...
Loading historical data...
Loading historical data...
Loading historical data...
Loading historical data...
Other satellites on launch #203 in the year 2024 (2024-11-09 UTC)

Documentation

Showing up to 5 results
|